[[{"header":{"parameterUnit":"m.s-1","parameterCategory":1,"la1":30.2991,"la2":30.254,"lo1":-89.0895,"lo2":-89.0444,"dy":0.0017,"dx":0.0017,"nx":28,"ny":28,"refTime":"2025-07-29T09:00:00:Z","depth":0,"parameterNumber":2,"parameterNumberName":"U-component_of_WINDS"},"data":[0,0,0,0,0,0,0,0,0,0,0,0,0,0,0,0,0,0,0,0,0,0,0,0,0,0,0,0,0,0,0,0,0,0,0,0,0,0,0,0,0,0,0,0,0,0,0,0,0,0,0,0,0,0,0,0,0,0,0.7883,0.7884,0,0.7914,0.7914,0.7915,0.7944,0.7945,0.7945,0.7946,0.7974,0.7975,0.7975,0,0,0,0,0,0,0,0,0,0,0,0,0,0.785,0.7851,0.7883,0.7884,0.7884,0.7914,0.7914,0.7915,0.7944,0.7945,0.7945,0.7946,0.7974,0.7975,0.7975,0,0,0,0,0,0,0,0,0,0,0,0,0,0.7871,0.7851,0.7883,0.7903,0.7905,0.7914,0.7914,0.7915,0.7944,0.7945,0.7945,0.7946,0.7974,0.7975,0.7975,0.7967,0,0,0.7977,0.7977,0,0,0,0,0,0,0,0,0.787,0.7872,0.7899,0.7901,0.7904,0.7926,0.7913,0.7932,0.7944,0.7929,0.7946,0.7946,0.7958,0.796,0.7964,0.7968,0.797,0.7977,0.7977,0.7978,0.7978,0,0,0,0,0,0,0,0.7868,0.7871,0.7895,0.79,0.7902,0.791,0.7913,0.7917,0.794,0.7931,0.7933,0.7936,0.7959,0.7963,0.7965,0.797,0.7977,0.7978,0.7978,0.7978,0.7972,0.7971,0,0,0,0,0,0,0.7864,0.787,0.7894,0.7896,0.7888,0.791,0.7914,0.7918,0.794,0.7944,0.7936,0.7937,0.7962,0.7964,0.7966,0.7959,0.7978,0.7978,0.7978,0.7972,0.7971,0.7971,0,0,0,0,0,0,0.7863,0.7866,0.7893,0.7884,0.7888,0.791,0.7914,0.7918,0.7923,0.7944,0.7948,0.7936,0.7963,0.7965,0.7967,0.7961,0.7978,0.7979,0.7973,0.7972,0.7971,0.7945,0,0,0,0,0,0,0.7862,0.7866,0.7863,0.7883,0.7888,0.7894,0.7914,0.7919,0.7924,0.7927,0.7945,0.7948,0.7963,0.7966,0.7968,0.7962,0.7979,0.7973,0.7972,0.7971,0.7946,0.7943,0.794,0,0,0,0,0,0.7861,0.7853,0.7862,0.7865,0.7885,0.7894,0.7896,0.7914,0.7924,0.7921,0.7935,0.7948,0.7961,0.7966,0.7968,0.7962,0.7974,0.7973,0.7971,0.7948,0.7944,0.794,0,0,0,0,0,0,0.7829,0.7856,0.7866,0.7865,0.7877,0.7899,0.7896,0.7909,0.7918,0.792,0.7941,0.7945,0.7945,0.7954,0.7959,0.7957,0.797,0.7969,0.7951,0.7947,0.7944,0.7942,0.798,0,0,0,0,0,0.7822,0.7828,0.785,0.7847,0.7852,0.7873,0.7877,0.7891,0.7903,0.7908,0.7922,0.7933,0.794,0.7944,0.7952,0.7948,0.7953,0.7945,0.7942,0.794,0.7939,0.7939,0.7936,0.7967,0.7967,0.7967,0,0,0.7807,0.7823,0.7824,0.7841,0.7852,0.7857,0.7877,0.7881,0.7885,0.7908,0.7912,0.7922,0.7937,0.7937,0.7937,0.7944,0.7932,0.7938,0.7936,0.7936,0.7938,0.7935,0.7932,0.7966,0.7966,0.7966,0,0,0.7783,0.7795,0.7794,0.7805,0.7822,0.7836,0.7836,0.7857,0.7865,0.7869,0.7888,0.7893,0.7904,0.7914,0.792,0.7903,0.7916,0.7905,0.7889,0.7889,0.7887,0.7885,0.788,0.7878,0.7904,0.7903,0.7903,0,0.7763,0.7771,0.7792,0.7796,0.7803,0.7826,0.7826,0.7836,0.7853,0.7858,0.7866,0.7882,0.7893,0.7896,0.7893,0.7897,0.7898,0.7902,0.7886,0.7884,0.7882,0.7878,0.7876,0.7902,0.7902,0.7902,0.7902,0,0.7746,0.7752,0.7749,0.7768,0.7775,0.7776,0.7797,0.7802,0.7815,0.7828,0.7833,0.7848,0.786,0.7861,0.7873,0.7867,0.7871,0.7882,0.7895,0.7878,0.7874,0.7872,0.79,0.7901,0.7901,0.7901,0,0,0.7701,0.7733,0.7731,0.7741,0.7762,0.7767,0.777,0.7783,0.7787,0.7799,0.7803,0.7813,0.7825,0.7832,0.7846,0.7846,0.7833,0.7857,0.7858,0.7853,0.7829,0.782,0.7818,0.7842,0.7842,0.7842,0.7828,0,0.7681,0.7689,0.7708,0.771,0.7717,0.774,0.7743,0.7757,0.777,0.7777,0.7792,0.7799,0.7813,0.7818,0.7819,0.7834,0.7828,0.7835,0.7846,0.7846,0.7842,0.7816,0.7806,0.7792,0.7826,0.7826,0.7826,0,0.7658,0.767,0.7673,0.7696,0.77,0.7702,0.7717,0.7723,0.774,0.7749,0.7759,0.7775,0.778,0.7793,0.7801,0.7806,0.7811,0.782,0.7819,0.7821,0.7835,0.7817,0.7788,0.7786,0.7823,0.7823,0.7824,0,0.7626,0.7643,0.7648,0.7655,0.7682,0.7683,0.7694,0.7712,0.7719,0.7731,0.7737,0.7749,0.7756,0.7765,0.7785,0.7792,0.7791,0.7805,0.7799,0.7799,0.7798,0.7797,0.777,0.7801,0.7801,0.7801,0.7801,0,0.7601,0.7602,0.7634,0.7637,0.7639,0.7662,0.7664,0.7677,0.7693,0.7699,0.772,0.7725,0.7749,0.7758,0.7772,0.7778,0.778,0.7789,0.7793,0.7787,0.7786,0.7791,0.7792,0.78,0.78,0.7801,0.7801,0,0.7566,0.7587,0.7594,0.7619,0.7626,0.7627,0.7649,0.7653,0.7668,0.7675,0.7679,0.7702,0.7713,0.7734,0.775,0.776,0.7762,0.7769,0.7757,0.7759,0.7753,0.7754,0.7728,0.7726,0.7757,0.7757,0.7757,0,0.7549,0.755,0.7577,0.7583,0.7594,0.7603,0.7611,0.7635,0.7642,0.7663,0.7664,0.7677,0.7689,0.7705,0.7724,0.7737,0.7744,0.7735,0.7746,0.7741,0.7745,0.7745,0.7746,0.7732,0.7731,0.7731,0.7731,0,0.7517,0.7528,0.7539,0.7555,0.7564,0.7577,0.7591,0.7595,0.7622,0.7629,0.7642,0.7651,0.7669,0.7681,0.7698,0.7709,0.7725,0.7727,0.7727,0.7721,0.7714,0.7719,0.775,0.7727,0.7728,0.7728,0.7728,0.7728,0.7491,0.7494,0.7514,0.7526,0.754,0.7553,0.7559,0.7576,0.7586,0.7604,0.7617,0.7628,0.7647,0.767,0.7681,0.7691,0.7698,0.7697,0.7697,0.7696,0.7695,0.7713,0.7694,0.7694,0.7694,0.7694,0.7694,0,0.746,0.7475,0.7486,0.7506,0.7516,0.7531,0.7548,0.7556,0.7566,0.7582,0.7594,0.7609,0.7622,0.7643,0.7658,0.7662,0.7669,0.7665,0.7665,0.7668,0.7687,0.7686,0.7659,0.7659,0.7659,0.7659,0.7659,0.7659,0.7446,0.7453,0.7467,0.7481,0.7496,0.7508,0.7517,0.7529,0.7543,0.7559,0.7571,0.7585,0.7603,0.762,0.7633,0.7639,0.7644,0.7637,0.7645,0.7663,0.7666,0.7669,0.7669,0.7638,0.7638,0.7626,0.7625,0.7625]},{"header":{"parameterUnit":"m.s-1","parameterCategory":1,"la1":30.2991,"la2":30.254,"lo1":-89.0895,"lo2":-89.0444,"dy":0.0017,"dx":0.0017,"nx":28,"ny":28,"refTime":"2025-07-29T09:00:00:Z","depth":0,"parameterNumber":3,"parameterNumberName":"V-component_of_WINDS"},"data":[0,0,0,0,0,0,0,0,0,0,0,0,0,0,0,0,0,0,0,0,0,0,0,0,0,0,0,0,0,0,0,0,0,0,0,0,0,0,0,0,0,0,0,0,0,0,0,0,0,0,0,0,0,0,0,0,0,0,-3.1877,-3.1876,0,-3.1765,-3.1764,-3.1763,-3.1769,-3.1771,-3.1773,-3.1774,-3.1645,-3.164,-3.1635,0,0,0,0,0,0,0,0,0,0,0,0,0,-3.2086,-3.2082,-3.1877,-3.1876,-3.1875,-3.1765,-3.1764,-3.1762,-3.1769,-3.1771,-3.1773,-3.1775,-3.1647,-3.1641,-3.1635,0,0,0,0,0,0,0,0,0,0,0,0,0,-3.1986,-3.208,-3.1878,-3.1865,-3.1863,-3.1766,-3.1764,-3.1762,-3.1769,-3.1771,-3.1774,-3.1776,-3.1648,-3.1641,-3.1634,-3.1537,0,0,-3.1611,-3.1608,0,0,0,0,0,0,0,0,-3.1992,-3.1978,-3.1868,-3.1866,-3.1863,-3.1784,-3.179,-3.1686,-3.1768,-3.1804,-3.1774,-3.1777,-3.1688,-3.1678,-3.1651,-3.1531,-3.1525,-3.161,-3.1606,-3.1602,-3.16,0,0,0,0,0,0,0,-3.1999,-3.1983,-3.1833,-3.1867,-3.1864,-3.1861,-3.185,-3.177,-3.1733,-3.1801,-3.1801,-3.1789,-3.1687,-3.1658,-3.1648,-3.1524,-3.161,-3.1604,-3.1599,-3.1596,-3.1317,-3.1315,0,0,0,0,0,0,-3.201,-3.1989,-3.1836,-3.1829,-3.1936,-3.1855,-3.1843,-3.1807,-3.1734,-3.1725,-3.1787,-3.1789,-3.1669,-3.1656,-3.1643,-3.1524,-3.1602,-3.1595,-3.1591,-3.132,-3.1317,-3.1314,0,0,0,0,0,0,-3.2015,-3.1996,-3.1841,-3.1909,-3.1889,-3.1849,-3.1809,-3.1803,-3.1774,-3.1723,-3.1715,-3.1764,-3.1671,-3.1654,-3.1564,-3.1519,-3.1592,-3.1585,-3.1324,-3.1319,-3.1315,-3.1285,0,0,0,0,0,0,-3.202,-3.1998,-3.1964,-3.1909,-3.1886,-3.1767,-3.1806,-3.1799,-3.1763,-3.1765,-3.17,-3.1691,-3.1671,-3.1575,-3.1557,-3.151,-3.1579,-3.1327,-3.1322,-3.1317,-3.1289,-3.128,-3.1272,0,0,0,0,0,-3.2028,-3.1956,-3.1962,-3.1943,-3.1843,-3.1765,-3.1751,-3.1734,-3.1759,-3.1722,-3.169,-3.1694,-3.1528,-3.1566,-3.1545,-3.1496,-3.133,-3.1323,-3.1317,-3.1293,-3.1282,-3.1272,0,0,0,0,0,0,-3.2002,-3.1949,-3.1954,-3.1864,-3.182,-3.1766,-3.1719,-3.1722,-3.1665,-3.1669,-3.1646,-3.1631,-3.1541,-3.151,-3.1553,-3.1398,-3.1432,-3.1421,-3.1421,-3.1409,-3.1401,-3.1408,-3.1573,0,0,0,0,0,-3.1987,-3.1932,-3.1887,-3.1812,-3.179,-3.1759,-3.1724,-3.1715,-3.1666,-3.1645,-3.1606,-3.1555,-3.1491,-3.1449,-3.1388,-3.1286,-3.127,-3.1242,-3.1233,-3.1226,-3.1215,-3.1157,-3.1143,-3.1292,-3.1292,-3.1292,0,0,-3.1952,-3.1917,-3.1883,-3.1806,-3.177,-3.171,-3.1742,-3.1677,-3.1631,-3.1634,-3.1548,-3.1518,-3.1458,-3.1362,-3.1318,-3.1333,-3.1172,-3.1218,-3.1213,-3.1205,-3.1149,-3.1135,-3.1123,-3.1288,-3.1289,-3.1289,0,0,-3.1859,-3.1828,-3.1762,-3.1727,-3.1675,-3.1655,-3.1639,-3.1586,-3.1567,-3.1482,-3.1483,-3.1426,-3.1317,-3.1275,-3.1239,-3.1132,-3.1132,-3.1113,-3.1064,-3.1008,-3.0996,-3.0986,-3.0945,-3.0931,-3.1103,-3.1103,-3.1103,0,-3.1821,-3.1735,-3.1725,-3.1661,-3.1626,-3.1632,-3.1562,-3.1527,-3.1455,-3.1428,-3.1449,-3.1313,-3.1273,-3.1167,-3.1142,-3.1113,-3.1091,-3.1118,-3.1,-3.0989,-3.0979,-3.0939,-3.0924,-3.1101,-3.1101,-3.1101,-3.1102,0,-3.169,-3.1631,-3.1583,-3.1519,-3.1479,-3.1411,-3.1388,-3.1347,-3.1343,-3.1319,-3.1231,-3.1185,-3.1114,-3.1089,-3.1081,-3.098,-3.0991,-3.1006,-3.1039,-3.0963,-3.0925,-3.091,-3.1098,-3.1098,-3.1099,-3.11,0,0,-3.1573,-3.1509,-3.149,-3.1461,-3.1406,-3.1357,-3.1289,-3.1225,-3.119,-3.1141,-3.108,-3.099,-3.1004,-3.0963,-3.0951,-3.0903,-3.0818,-3.0923,-3.0921,-3.0902,-3.07,-3.0687,-3.067,-3.082,-3.0817,-3.0815,-3.0704,0,-3.1472,-3.1357,-3.1347,-3.1242,-3.1185,-3.1191,-3.1132,-3.1089,-3.1066,-3.1011,-3.0984,-3.0919,-3.0944,-3.0919,-3.0872,-3.0839,-3.0776,-3.0847,-3.0758,-3.0755,-3.077,-3.0651,-3.0636,-3.0534,-3.069,-3.0687,-3.0686,0,-3.1337,-3.129,-3.118,-3.1133,-3.1109,-3.1056,-3.0997,-3.0946,-3.0896,-3.0883,-3.084,-3.0835,-3.076,-3.08,-3.0696,-3.0744,-3.0707,-3.0686,-3.0681,-3.0668,-3.0713,-3.0631,-3.0501,-3.0485,-3.0663,-3.0665,-3.0666,0,-3.1259,-3.1167,-3.109,-3.1066,-3.101,-3.0972,-3.0946,-3.09,-3.0862,-3.0809,-3.0783,-3.072,-3.0684,-3.0634,-3.061,-3.0642,-3.0506,-3.0544,-3.0488,-3.0488,-3.0455,-3.0457,-3.0314,-3.0439,-3.0439,-3.0439,-3.0439,0,-3.1145,-3.1076,-3.1055,-3.1006,-3.0929,-3.0918,-3.0841,-3.0816,-3.0775,-3.0719,-3.072,-3.0666,-3.0641,-3.0582,-3.0563,-3.0477,-3.0462,-3.0445,-3.044,-3.0443,-3.0444,-3.0415,-3.042,-3.0435,-3.0436,-3.0437,-3.0437,0,-3.1042,-3.1026,-3.0941,-3.0898,-3.0885,-3.0829,-3.0789,-3.074,-3.0721,-3.0649,-3.0632,-3.0597,-3.0528,-3.0502,-3.0416,-3.0404,-3.0304,-3.0306,-3.0322,-3.0319,-3.0264,-3.0268,-3.0093,-3.0068,-3.0213,-3.0212,-3.0211,0,-3.0969,-3.0917,-3.0869,-3.0835,-3.0809,-3.0752,-3.0715,-3.0702,-3.0662,-3.0603,-3.056,-3.0493,-3.0438,-3.0327,-3.0291,-3.0225,-3.0223,-3.0167,-3.0213,-3.0217,-3.0218,-3.022,-3.0213,-3.0157,-3.0155,-3.0154,-3.0153,0,-3.0838,-3.0834,-3.0783,-3.0729,-3.0686,-3.0642,-3.0598,-3.0568,-3.0548,-3.0503,-3.0435,-3.0393,-3.0309,-3.024,-3.0173,-3.0141,-3.0141,-3.014,-3.0123,-3.0123,-3.0133,-3.0123,-3.0294,-3.0143,-3.0144,-3.0145,-3.0145,-3.0146,-3.0745,-3.07,-3.066,-3.0603,-3.057,-3.053,-3.0483,-3.0459,-3.0404,-3.0337,-3.0332,-3.0258,-3.0209,-3.012,-3.0085,-3.0024,-3.0038,-3.0014,-3.0007,-3.0,-2.9995,-3.0147,-3.0012,-3.0012,-3.0012,-3.0013,-3.0013,0,-3.0612,-3.0588,-3.0537,-3.0479,-3.0433,-3.0446,-3.0399,-3.0358,-3.0295,-3.0252,-3.0199,-3.012,-3.0055,-3.0016,-2.9949,-2.9907,-2.9905,-2.9889,-2.9889,-2.9881,-2.9988,-3.0008,-2.9891,-2.9892,-2.9892,-2.9892,-2.9892,-2.9892,-3.0538,-3.0461,-3.0452,-3.0357,-3.0332,-3.0264,-3.0236,-3.0198,-3.0163,-3.0077,-3.0025,-3.0002,-2.9959,-2.9889,-2.9828,-2.9818,-2.9791,-2.9773,-2.9763,-2.9862,-2.9874,-2.9886,-2.9905,-2.9768,-2.9768,-2.9661,-2.966,-2.966]}]]